Date_and_time,latitude,longitude,wind_speed,RelWindDirFrom,WindDirFrom,air_pressure,air_temperature,relative_humidity,Temp,platform_speed_wrt_ground,air_pressure_at_mean_sea_level,platform_orientation
2018-10-13 23:40,50.6304283333333,-96.9807516666667,8.5,14.0,287,982.37,1.6,62,4.23,0.0,1009.89,345.5
2018-10-13 23:50,50.6303966666667,-96.9807383333333,7.4,11.8,280,982.63,1.4,62,4.21,0.0,1010.17,345.5
2018-10-14 00:00,50.6304266666667,-96.98074,7.8,13.6,282,982.75,1.3,61,4.21,0.0,1010.31,360.0
2018-10-14 00:10,50.6304233333333,-96.98074,6.6,11.4,280,982.96,1.3,62,4.21,0.0,1010.52,360.0
2018-10-14 00:20,50.6304266666667,-96.98074,5.9,11.3,284,983.09,1.2,62,4.19,0.0,1010.66,360.0
2018-10-14 00:30,50.6304283333333,-96.9807433333333,4.2,6.8,281,983.30,1.0,64,4.20,0.0,1010.88,360.0
2018-10-14 00:40,50.63043,-96.980745,4.3,6.6,284,983.45,0.9,65,4.20,0.0,1011.05,360.0
2018-10-14 00:50,50.63043,-96.9807466666667,3.9,6.1,286,983.59,0.9,65,4.20,0.0,1011.19,360.0
2018-10-14 01:00,50.63043,-96.9807466666667,3.5,5.3,281,983.70,0.9,65,4.21,0.0,1011.31,360.0
2018-10-14 01:10,50.6304283333333,-96.980755,3.8,5.8,269,983.76,0.9,65,4.22,0.0,1011.38,360.0
2018-10-14 01:20,50.6304233333333,-96.9807533333333,3.2,5.0,254,983.83,0.8,65,4.19,0.0,1011.45,360.0
2018-10-14 01:30,50.6304216666667,-96.98076,3.5,5.4,251,983.83,0.8,66,4.18,0.0,1011.46,360.0
2018-10-14 01:40,50.6304216666667,-96.9807583333333,3.6,4.8,229,983.84,0.7,68,4.19,0.0,1011.48,360.0
2018-10-14 01:50,50.63042,-96.9807566666667,3.5,4.8,252,983.99,0.8,67,4.20,0.0,1011.64,360.0
2018-10-14 02:00,50.6304183333333,-96.980755,2.0,4.0,287,984.08,0.8,67,4.20,0.0,1011.73,360.0
2018-10-14 02:10,50.63042,-96.980755,3.6,5.3,256,984.23,0.6,68,4.21,0.0,1011.90,360.0
2018-10-14 02:20,50.63042,-96.980755,3.4,5.4,243,984.36,0.6,69,4.20,0.0,1012.04,360.0
2018-10-14 02:30,50.6304266666667,-96.9807833333333,2.1,3.7,244,984.51,0.6,69,4.20,0.0,1012.20,360.0
2018-10-14 02:40,50.6304233333333,-96.9807533333333,1.8,3.2,248,984.59,0.6,68,4.21,0.0,1012.28,360.0
2018-10-14 02:50,50.6304233333333,-96.9807566666667,3.2,4.9,236,984.72,0.6,68,4.23,0.0,1012.42,360.0
2018-10-14 03:00,50.6304233333333,-96.9807533333333,2.7,4.2,229,984.75,0.6,69,4.24,0.0,1012.45,270.0
2018-10-14 03:10,50.6304233333333,-96.9807533333333,3.8,5.3,219,984.78,0.6,69,4.24,0.0,1012.48,270.0
2018-10-14 03:20,50.6304233333333,-96.9807533333333,4.4,5.6,215,984.83,0.6,70,4.23,0.0,1012.53,270.0
2018-10-14 03:30,50.630415,-96.9807433333333,4.2,5.7,219,984.89,0.6,70,4.23,0.0,1012.60,270.0
2018-10-14 03:40,50.63042,-96.9807483333333,4.3,5.8,210,985.00,0.6,71,4.22,0.0,1012.71,270.0
2018-10-14 03:50,50.6304216666667,-96.9807433333333,4.7,6.4,215,985.12,0.6,70,4.19,0.0,1012.84,270.0
2018-10-14 04:00,50.6304233333333,-96.980745,4.9,6.7,225,985.20,0.6,70,4.17,0.0,1012.93,90.0
2018-10-14 04:10,50.6304233333333,-96.9807416666667,5.0,6.7,229,985.31,0.6,69,4.15,0.0,1013.04,90.0
2018-10-14 04:20,50.6304216666667,-96.9807433333333,4.3,6.3,238,985.36,0.7,68,4.13,0.0,1013.09,90.0
2018-10-14 04:30,50.6304283333333,-96.9807316666667,4.3,6.8,233,985.40,0.7,69,4.12,0.0,1013.12,90.0
2018-10-14 04:40,50.630415,-96.9807416666667,4.8,7.6,244,985.38,0.7,67,4.12,0.0,1013.11,90.0
2018-10-14 04:50,50.6304216666667,-96.98074,5.2,8.0,246,985.37,0.8,65,4.13,0.0,1013.09,90.0
2018-10-14 05:00,50.6304283333333,-96.9807416666667,3.8,6.3,248,985.46,0.8,66,4.13,0.0,1013.19,36.6
2018-10-14 05:10,50.6304233333333,-96.98075,3.3,5.7,238,985.51,0.7,67,4.13,0.0,1013.25,36.6
2018-10-14 05:20,50.6304233333333,-96.9807466666667,2.8,4.4,251,985.47,0.7,67,4.13,0.0,1013.20,36.6
2018-10-14 05:30,50.6304266666667,-96.9807483333333,2.3,4.1,286,985.42,0.8,67,4.14,0.0,1013.14,36.6
2018-10-14 05:40,50.63043,-96.98075,2.1,3.2,317,985.41,0.9,67,4.16,0.0,1013.13,36.6
2018-10-14 05:50,50.6304316666667,-96.9807483333333,2.8,5.7,241,985.50,0.7,67,4.16,0.0,1013.23,36.6
2018-10-14 06:00,50.630435,-96.9807683333333,4.1,6.1,225,985.63,0.5,70,4.17,0.0,1013.37,311.7
2018-10-14 06:10,50.63042,-96.9807616666667,3.0,4.6,231,985.74,0.4,70,4.17,0.0,1013.49,311.7
2018-10-14 06:20,50.6304133333333,-96.98075,3.1,4.6,223,985.89,0.4,71,4.17,0.0,1013.64,311.7
2018-10-14 06:30,50.6304216666667,-96.9807533333333,3.2,4.5,230,985.93,0.3,71,4.17,0.0,1013.68,311.7
2018-10-14 06:40,50.6304216666667,-96.9807533333333,3.6,4.7,231,986.01,0.3,71,4.17,0.0,1013.76,311.7
2018-10-14 06:50,50.6304216666667,-96.9807533333333,3.3,4.7,221,986.05,0.2,71,4.18,0.0,1013.81,311.7
2018-10-14 07:00,50.6304216666667,-96.98075,3.0,4.6,228,986.07,0.3,71,4.15,0.0,1013.84,192.6
2018-10-14 07:10,50.6304166666667,-96.9807633333333,3.3,4.7,225,986.14,0.3,71,4.16,0.0,1013.90,192.6
2018-10-14 07:20,50.63042,-96.9807583333333,2.9,4.4,226,986.24,0.3,70,4.19,0.0,1014.00,192.6
2018-10-14 07:30,50.6304316666667,-96.9807433333333,3.2,4.8,213,986.39,0.3,69,4.20,0.0,1014.16,192.6
2018-10-14 07:40,50.63042,-96.9807516666667,5.0,6.2,213,986.57,0.3,69,4.21,0.0,1014.35,192.6
2018-10-14 07:50,50.63042,-96.980755,3.8,5.4,221,986.59,0.2,69,4.22,0.0,1014.38,192.6
2018-10-14 08:00,50.63042,-96.9807583333333,3.5,4.9,226,986.62,0.2,68,4.22,0.0,1014.42,240.8
2018-10-14 08:10,50.6304216666667,-96.98076,3.3,4.7,229,986.68,0.2,66,4.20,0.0,1014.48,240.8
2018-10-14 08:20,50.6304216666667,-96.9807583333333,3.8,5.0,233,986.76,0.2,65,4.16,0.0,1014.57,240.8
2018-10-14 08:30,50.630415,-96.9807466666667,3.8,5.3,222,986.86,0.1,67,4.13,0.0,1014.68,240.8
2018-10-14 08:40,50.6304166666667,-96.9807483333333,4.3,5.4,222,986.92,0.1,66,4.12,0.0,1014.74,240.8
2018-10-14 08:50,50.6304183333333,-96.980745,2.9,4.8,228,986.93,0.1,64,4.11,0.0,1014.75,240.8
2018-10-14 09:00,50.6304183333333,-96.9807416666667,3.3,4.8,219,986.92,0.1,65,4.08,0.0,1014.74,152.6
2018-10-14 09:10,50.6304166666667,-96.9807416666667,3.0,4.4,227,987.01,0.0,65,4.08,0.0,1014.83,152.6
2018-10-14 09:20,50.6304166666667,-96.9807433333333,3.2,4.1,211,987.07,0.0,65,4.08,0.0,1014.89,152.6
2018-10-14 09:30,50.63046,-96.98077,1.3,2.7,249,987.12,0.1,65,4.08,0.0,1014.94,152.6
2018-10-14 09:40,50.6304316666667,-96.9807416666667,2.7,5.4,220,987.11,0.0,63,4.08,0.0,1014.94,152.6
2018-10-14 09:50,50.6304266666667,-96.9807383333333,0.7,3.5,235,987.10,0.0,64,4.09,0.0,1014.93,152.6
2018-10-14 10:00,50.6304266666667,-96.98074,2.3,3.5,232,987.16,-0.0,65,4.09,0.0,1014.99,48.3
2018-10-14 10:10,50.6304283333333,-96.9807416666667,2.2,4.0,292,987.16,-0.1,65,4.09,0.0,1014.99,48.3
2018-10-14 10:20,50.6304266666667,-96.9807416666667,3.2,4.5,313,987.17,-0.0,64,4.10,0.0,1015.01,48.3
2018-10-14 10:30,50.6304266666667,-96.9807416666667,2.5,4.1,283,987.22,-0.1,65,4.12,0.0,1015.06,48.3
2018-10-14 10:40,50.6304266666667,-96.9807433333333,2.0,2.9,261,987.30,-0.2,66,4.14,0.0,1015.15,48.3
2018-10-14 10:50,50.6304283333333,-96.980745,2.6,3.8,295,987.33,-0.2,66,4.15,0.0,1015.19,48.3
2018-10-14 11:00,50.6304283333333,-96.980745,3.0,4.0,266,987.45,-0.2,67,4.16,0.0,1015.31,60.8
2018-10-14 11:10,50.6304366666667,-96.9807466666667,2.5,3.8,259,987.57,-0.4,69,4.17,0.0,1015.44,60.8
2018-10-14 11:20,50.6304316666667,-96.9807483333333,2.5,3.7,258,987.67,-0.4,68,4.18,0.0,1015.54,60.8
2018-10-14 11:30,50.6304183333333,-96.980745,3.1,4.2,269,987.76,-0.5,69,4.19,0.0,1015.65,60.8
2018-10-14 11:40,50.6304416666667,-96.9807166666667,3.6,4.6,266,987.83,-0.5,70,4.19,0.0,1015.72,60.8
2018-10-14 11:50,50.630425,-96.98074,3.8,5.0,263,987.81,-0.6,70,4.20,0.0,1015.70,60.8
2018-10-14 12:00,50.630425,-96.9807466666667,4.1,5.8,279,987.76,-0.4,70,4.20,0.0,1015.65,360.0
2018-10-14 12:10,50.6304266666667,-96.9807466666667,3.9,5.5,281,987.76,-0.5,71,4.19,0.0,1015.65,360.0
2018-10-14 12:20,50.630425,-96.9807466666667,3.3,5.0,282,987.87,-0.5,71,4.14,0.0,1015.77,360.0
2018-10-14 12:30,50.6304266666667,-96.9807466666667,2.9,4.2,288,987.96,-0.5,71,4.12,0.0,1015.86,360.0
2018-10-14 12:40,50.6304283333333,-96.9807483333333,3.8,5.3,293,987.97,-0.5,70,4.09,0.0,1015.87,360.0
2018-10-14 12:50,50.63043,-96.9807516666667,4.0,5.5,290,987.96,-0.5,71,4.06,0.0,1015.86,360.0
2018-10-14 13:00,50.63041,-96.9807583333333,4.6,6.5,278,988.04,-0.6,72,4.02,0.0,1015.96,212.5
2018-10-14 13:10,50.6304216666667,-96.98075,5.3,7.8,307,988.21,-0.5,72,4.01,0.0,1016.13,212.5
2018-10-14 13:20,50.630425,-96.9807466666667,4.6,7.2,303,988.33,-0.6,72,4.01,0.0,1016.25,212.5
2018-10-14 13:30,50.6304233333333,-96.9807466666667,4.6,6.5,306,988.49,-0.5,72,3.99,0.0,1016.42,212.5
2018-10-14 13:40,50.6304233333333,-96.98075,4.1,6.1,302,988.58,-0.5,72,3.96,0.0,1016.52,212.5
2018-10-14 13:50,50.63041,-96.9807433333333,5.2,7.5,313,988.70,-0.4,72,3.93,0.0,1016.63,212.5
2018-10-14 14:00,50.6304366666667,-96.9807466666667,5.6,8.0,318,988.84,-0.3,72,3.90,0.0,1016.78,360.0
2018-10-14 14:10,50.630425,-96.98076,5.6,7.3,316,988.98,-0.3,72,3.90,0.0,1016.91,360.0
2018-10-14 14:20,50.6304266666667,-96.98076,5.7,7.7,322,989.14,-0.3,73,3.92,0.0,1017.08,360.0
2018-10-14 14:30,50.630425,-96.9807583333333,6.3,8.4,324,989.20,-0.3,74,3.91,0.0,1017.14,360.0
2018-10-14 14:40,50.6304216666667,-96.98076,6.0,8.5,326,989.37,-0.2,74,3.90,0.0,1017.31,360.0
2018-10-14 14:50,50.6304216666667,-96.9807566666667,5.4,7.7,328,989.51,-0.1,75,3.89,0.0,1017.46,360.0
2018-10-14 15:00,50.6304183333333,-96.9807533333333,4.9,6.9,329,989.59,0.0,76,3.86,0.0,1017.53,360.0
2018-10-14 15:10,50.6304183333333,-96.98075,4.8,6.7,325,989.71,0.0,77,3.86,0.0,1017.65,360.0
2018-10-14 15:20,50.6304183333333,-96.9807516666667,5.1,6.6,328,989.75,0.1,77,3.87,0.0,1017.69,360.0
2018-10-14 15:30,50.63042,-96.9807516666667,5.9,8.2,323,989.74,0.2,75,3.90,0.0,1017.67,360.0
2018-10-14 15:40,50.630445,-96.98079,5.1,7.8,323,989.82,0.3,75,3.90,0.0,1017.75,360.0
2018-10-14 15:50,50.630415,-96.9807533333333,6.5,9.8,333,989.84,0.5,76,3.90,0.0,1017.76,360.0
2018-10-14 16:00,50.6304266666667,-96.980745,5.7,8.9,330,990.01,0.3,76,3.90,0.0,1017.93,32.5
2018-10-14 16:10,50.6304283333333,-96.9807433333333,3.4,5.4,322,990.22,0.1,77,3.90,0.0,1018.16,32.5
2018-10-14 16:20,50.6304283333333,-96.980755,3.9,6.0,320,990.24,0.1,76,3.90,0.0,1018.18,32.5
2018-10-14 16:30,50.6304116666667,-96.9807716666667,5.2,7.8,317,990.21,0.2,75,3.91,0.0,1018.14,32.5
2018-10-14 16:40,50.6304133333333,-96.98076,6.1,9.4,342,990.22,0.3,75,3.92,0.0,1018.14,32.5
2018-10-14 16:50,50.630415,-96.9807566666667,6.9,10.4,337,990.25,0.4,76,3.92,0.0,1018.16,32.5
2018-10-14 17:00,50.6304183333333,-96.9807533333333,7.4,11.1,344,990.30,0.4,78,3.92,0.0,1018.21,360.0
2018-10-14 17:10,50.63042,-96.9807566666667,8.0,11.4,346,990.35,0.5,80,3.93,0.0,1018.25,360.0
2018-10-14 17:20,50.63042,-96.980755,7.3,10.9,345,990.42,0.6,81,3.95,0.0,1018.31,360.0
2018-10-14 17:30,50.630425,-96.9807616666667,8.1,11.0,343,990.51,0.6,81,3.97,0.0,1018.40,360.0
2018-10-14 17:40,50.6304233333333,-96.9807616666667,7.9,12.1,338,990.59,0.6,82,3.98,0.0,1018.47,360.0
2018-10-14 17:50,50.630425,-96.9807616666667,7.6,11.3,343,990.65,0.6,82,4.00,0.0,1018.54,360.0
2018-10-14 18:00,50.630425,-96.9807583333333,8.0,10.9,353,990.69,0.8,82,4.04,0.0,1018.59,360.0
2018-10-14 18:10,50.6304133333333,-96.9807483333333,8.1,11.0,357,990.69,0.9,77,4.03,0.0,1018.58,360.0
2018-10-14 18:20,50.6304366666667,-96.9807566666667,7.7,11.5,355,990.71,1.0,74,4.00,0.0,1018.60,360.0
2018-10-14 18:30,50.6304316666667,-96.9807433333333,6.7,11.2,352,990.79,1.0,70,3.98,0.0,1018.67,360.0
2018-10-14 18:40,50.6304533333333,-96.9807633333333,6.9,9.7,0,990.81,1.1,74,3.98,0.0,1018.68,360.0
2018-10-14 18:50,50.6304233333333,-96.9807416666667,9.0,12.0,10,990.76,1.1,81,3.97,0.0,1018.62,360.0
2018-10-14 19:00,50.6304333333333,-96.9807483333333,9.3,13.3,13,990.77,1.1,81,3.95,0.0,1018.63,347.4
2018-10-14 19:10,50.6304283333333,-96.9807466666667,7.8,11.0,7,990.79,1.2,76,3.94,0.0,1018.64,347.4
2018-10-14 19:20,50.6304266666667,-96.9807483333333,8.0,11.7,1,990.75,1.4,68,3.93,0.0,1018.59,347.4
2018-10-14 19:30,50.6304283333333,-96.9807516666667,8.1,12.9,12,990.73,1.5,73,3.93,0.0,1018.56,347.4
2018-10-14 19:40,50.6304333333333,-96.9807483333333,8.3,11.1,11,990.77,1.6,76,3.93,0.0,1018.61,347.4
2018-10-14 19:50,50.6304166666667,-96.9807616666667,8.6,11.4,360,990.82,1.5,76,3.92,0.0,1018.65,347.4
2018-10-14 20:00,50.63041,-96.9807383333333,7.2,10.6,352,990.84,1.4,75,3.93,0.0,1018.67,119.2
2018-10-14 20:10,50.630415,-96.98074,6.6,9.4,338,990.86,1.4,73,3.93,0.0,1018.69,119.2
2018-10-14 20:20,50.6304183333333,-96.980745,6.8,9.6,323,990.87,1.3,73,3.93,0.0,1018.70,119.2
2018-10-14 20:30,50.6304183333333,-96.980745,6.1,10.1,327,990.94,1.3,75,3.94,0.0,1018.76,119.2
2018-10-14 20:40,50.63042,-96.9807466666667,7.7,11.0,318,990.96,1.1,77,3.94,0.0,1018.80,119.2
2018-10-14 20:50,50.63042,-96.980755,5.9,8.6,311,991.07,1.0,79,3.94,0.0,1018.92,119.2
2018-10-14 21:00,50.6304233333333,-96.98075,6.3,9.6,325,991.07,1.0,77,3.94,0.0,1018.91,90.0
2018-10-14 21:10,50.6304266666667,-96.9807533333333,7.5,11.0,313,991.05,0.8,80,3.94,0.0,1018.89,90.0
2018-10-14 21:20,50.6304266666667,-96.9807533333333,8.2,11.5,306,991.06,0.4,84,3.93,0.0,1018.92,90.0
2018-10-14 21:30,50.6304266666667,-96.980755,7.2,10.3,313,991.13,0.3,89,3.94,0.0,1018.99,90.0
2018-10-14 21:40,50.6304283333333,-96.9807566666667,6.4,9.6,305,991.16,0.2,94,3.93,0.0,1019.03,90.0
2018-10-14 21:50,50.6304283333333,-96.980755,5.8,8.6,306,991.19,0.1,98,3.93,0.0,1019.07,90.0
2018-10-14 22:00,50.6304533333333,-96.9807533333333,5.6,9.3,307,991.21,0.1,99,3.93,0.0,1019.09,25.7
2018-10-14 22:10,50.6304416666667,-96.980755,6.3,11.3,313,991.23,0.1,99,3.94,0.0,1019.12,25.7
2018-10-14 22:20,50.630435,-96.9807533333333,6.7,11.8,321,991.31,0.1,99,3.94,0.0,1019.20,25.7
2018-10-14 22:30,50.6304333333333,-96.9807483333333,8.4,12.0,328,991.37,0.1,99,3.94,0.0,1019.26,25.7
2018-10-14 22:40,50.6304316666667,-96.9807466666667,8.2,13.1,326,991.40,0.0,99,3.94,0.0,1019.32,25.7
2018-10-14 22:50,50.6304316666667,-96.9807483333333,10.6,15.3,336,991.41,0.1,99,3.93,0.0,1019.32,25.7
2018-10-14 23:00,50.63043,-96.9807483333333,10.9,16.7,336,991.50,0.0,99,3.95,0.0,1019.43,327.5
2018-10-14 23:10,50.6304216666667,-96.9807316666667,12.5,19.5,338,991.49,-0.1,99,3.97,0.0,1019.44,327.5
2018-10-14 23:20,50.6304283333333,-96.9807433333333,12.1,17.1,339,991.60,-0.1,99,4.00,0.0,1019.56,327.5
2018-10-14 23:30,50.6304433333333,-96.980745,11.8,16.8,339,991.75,-0.1,99,4.03,0.0,1019.72,327.5
2018-10-14 23:40,50.6304383333333,-96.9807433333333,11.5,17.6,336,991.82,-0.2,99,4.05,0.0,1019.80,327.5
2018-10-14 23:50,50.6304333333333,-96.9807383333333,11.5,17.3,335,991.92,-0.3,99,4.05,0.0,1019.91,327.5
